Home > Weather > Malmö > Past weeks

Flag for Sweden Past Weather in Malmö, Sweden — Yesterday and Last 2 Weeks

Now
50 °F

Clear.


Feels Like: 48 °F
Forecast: 59 / 67 °F
Wind: 5 mph from East

Location: Malmo / Sturup

Current Time: Jun 29, 2016 at 2:20:58 AM

Latest Report: Jun 29, 2016 at 1:50 AM


Visibility: 10 mi

Pressure: 29.95 "Hg

Humidity: 100%

Dew Point: 50 °F

Location of MalmöLocation

Past Weather in Malmö — Graph

°F

Malmö Temperature Yesterday

Maximum temperature yesterday: 66 °F (at 1:50 PM)
Minimum temperature yesterday: 52 °F (at 11:20 PM)
Average temperature yesterday: 61 °F

High & Low Weather Summary for the Past Weeks

 TemperatureHumidityPressure
High82 °F (Jun 25, 3:50 PM)100% (Jun 14, 3:50 PM)30.24 "Hg (Jun 14, 3:50 PM)
Low46 °F (Jun 22, 3:20 AM)49% (Jun 26, 7:20 PM)29.50 "Hg (Jun 15, 12:50 AM)
Average62 °F80%29.89 "Hg
* Reported Jun 14 12:20 AM — Jun 29 12:50 AM, Malmö, Weather by CustomWeather, © 2016

Note: Actual official high and low records may vary slightly from our data, if they occured in-between our weather recording intervals... More about our weather records

Advertising

Malmö Weather History for the Previous 24 Hours

Scroll right to see more
 ConditionsComfort  
Time TempWeatherWind HumidityBarometerVisibility
12:50 AM
Wed, Jun 29
50 °FClear.3 mph100%29.98 "Hg10 mi
12:20 AM50 °FClear.2 mph100%29.98 "Hg10 mi
11:20 PM
Tue, Jun 28
52 °FClear.5 mph94%29.98 "Hg10 mi
10:50 PM54 °FSunny.5 mph94%29.98 "Hg10 mi
10:20 PM54 °FSunny.6 mph88%29.98 "Hg10 mi
9:50 PM57 °FSunny.6 mph82%29.98 "Hg10 mi
9:20 PM59 °FSunny.6 mph77%29.98 "Hg10 mi
8:50 PM63 °FSunny.9 mph68%29.98 "Hg10 mi
8:20 PM63 °FSunny.12 mph64%29.98 "Hg10 mi
7:50 PM63 °FSunny.12 mph68%29.98 "Hg10 mi
7:20 PM64 °FSunny.8 mph60%29.98 "Hg10 mi
6:50 PM64 °FSunny.7 mph64%29.98 "Hg10 mi
6:20 PM63 °FSunny.8 mph68%29.98 "Hg10 mi
5:50 PM63 °FPassing clouds.9 mph68%30.01 "HgN/A
5:20 PM64 °FPassing clouds.12 mph60%30.01 "HgN/A
4:50 PM63 °FScattered clouds.13 mph64%30.01 "HgN/A
4:20 PM66 °FScattered clouds.10 mph52%29.98 "HgN/A
3:50 PM66 °FPartly sunny.10 mph56%30.01 "HgN/A
3:20 PM66 °FScattered clouds.10 mph56%30.01 "HgN/A
2:50 PM64 °FScattered clouds.8 mph52%30.01 "HgN/A
2:20 PM64 °FPassing clouds.7 mph52%30.01 "HgN/A
1:50 PM66 °FPassing clouds.8 mph52%30.01 "HgN/A
1:20 PM64 °FSunny.7 mph60%30.01 "Hg10 mi
12:50 PM63 °FBroken clouds.9 mph64%30.01 "HgN/A
12:20 PM64 °FScattered clouds.9 mph52%30.01 "HgN/A
11:50 AM64 °FScattered clouds.8 mph56%30.01 "HgN/A
11:20 AM63 °FPassing clouds.8 mph64%30.01 "HgN/A
10:50 AM63 °FPassing clouds.9 mph64%30.01 "HgN/A
10:20 AM64 °FScattered clouds.9 mph64%30.01 "HgN/A
9:50 AM63 °FScattered clouds.10 mph64%29.98 "HgN/A
9:20 AM63 °FScattered clouds.9 mph68%29.98 "HgN/A
8:50 AM61 °FPassing clouds.10 mph68%29.98 "HgN/A
8:20 AM61 °FScattered clouds.9 mph72%29.98 "HgN/A
7:50 AM59 °FPassing clouds.8 mph77%29.98 "HgN/A
7:20 AM57 °FScattered clouds.7 mph88%29.98 "HgN/A
6:50 AM59 °FScattered clouds.8 mph82%29.98 "HgN/A
6:20 AM57 °FPassing clouds.7 mph94%29.98 "HgN/A
5:50 AM57 °FScattered clouds.6 mph94%29.98 "HgN/A
5:20 AM55 °FPassing clouds.7 mph94%29.98 "HgN/A
4:50 AM55 °FPassing clouds.6 mph94%29.98 "HgN/A
4:20 AM57 °FPassing clouds.6 mph94%29.95 "HgN/A
3:50 AM57 °FPassing clouds.5 mph94%29.95 "HgN/A
3:20 AM57 °FPassing clouds.6 mph94%29.95 "HgN/A
2:50 AM59 °FRain. Passing clouds.6 mph94%29.95 "HgN/A
2:20 AM59 °FLight rain. Overcast.7 mph94%29.95 "Hg6 mi
Weather by CustomWeather, © 2016

See weather overviewHow to use our weather pages